Location: Las Vegas
(36.1750°N, 115.1360°W)
Time: 19:56:55
(UTC-08:00)

Amateur Radio Satellites - All Passes

Search period start: 30 January 2015 19:26
Search period end: 31 January 2015 19:26
Location: Las Vegas, 36.1750°N, 115.1360°W

Satellite Date Start Highest point End Downlink Frequencies (MHz)
Time Altitude Azimuth
GOMX 1 30 Jan 19:32:49 19:37:43 54° 74° (ENE) 19:42:59 467.674
DOVE 4 30 Jan 19:37:24 19:42:08 43° 73° (ENE) 19:47:08 437.250
SEEDS 30 Jan 19:40:18 19:44:27 54° 75° (ENE) 19:48:37 437.485
STRAND 1 30 Jan 19:41:59 19:46:08 24° 292° (WNW) 19:50:10 437.568
ISS 30 Jan 19:44:49 19:47:34 26° 132° (SE) 19:50:22 145.825
BRITE-PL 30 Jan 19:45:50 19:50:51 79° 258° (WSW) 19:56:19 437.365/2234.400
UKube-1 30 Jan 19:57:12 19:59:52 17° 68° (ENE) 20:02:42 .
COMPASS 1 30 Jan 20:04:19 20:08:33 87° 83° (E) 20:12:47 437.405
YUBILEINY 30 Jan 20:06:22 20:14:33 43° 285° (WNW) 20:22:39 435.215
JUGNU 30 Jan 20:07:40 20:09:28 11° 192° (SSW) 20:11:10 437.505
CUBEBUG 2 30 Jan 20:13:30 20:17:42 33° 72° (ENE) 20:22:00 437.445
ZACube-1 30 Jan 20:14:20 20:17:54 23° 70° (ENE) 20:21:33 437.345
DELFI C3 30 Jan 20:15:21 20:19:04 35° 73° (ENE) 20:22:49 145.870
DX 1 30 Jan 20:18:49 20:22:36 30° 71° (ENE) 20:26:27 434.975-435.025
CANX-2 30 Jan 20:24:11 20:28:07 33° 263° (W) 20:32:00 2200.000
FUNcube-1 30 Jan 20:25:16 20:29:13 29° 71° (ENE) 20:33:14 145.935
AAUSAT CUBESAT 2 30 Jan 20:29:27 20:33:34 52° 260° (W) 20:37:42 437.432
CINEMA 3 30 Jan 20:48:54 20:53:46 61° 261° (W) 20:58:46 145.822/145.860
CUTE 1.7 + AOD 2 30 Jan 20:48:59 20:52:12 20° 267° (W) 20:55:17 437.475
UWE-3 30 Jan 20:49:24 20:54:03 68° 76° (ENE) 20:58:45 435.000/436.395/437.385
SRMSAT 30 Jan 20:49:55 20:52:59 14° 188° (S) 20:55:59 437.500
AISAT 30 Jan 20:51:40 20:55:19 26° 70° (ENE) 20:59:04 437.250
Oscar 11 30 Jan 20:55:06 20:59:24 58° 260° (W) 21:03:41 145.826/435.025
HO-68 30 Jan 20:59:19 21:05:17 27° 266° (W) 21:11:03 435.675
50 SAT 30 Jan 20:59:57 21:03:24 27° 72° (ENE) 21:06:56 437.505
ESTCUBE 1 30 Jan 21:01:36 21:03:49 14° 67° (ENE) 21:06:16 437.505/2401.250
TIGRISAT 30 Jan 21:08:34 21:09:16 10° 89° (E) 21:10:17 435.000
GOMX 1 30 Jan 21:13:09 21:16:20 16° 272° (W) 21:19:21 467.674
DOVE 4 30 Jan 21:16:27 21:20:10 20° 269° (W) 21:23:49 437.250
VELOX 1 30 Jan 21:18:18 21:22:34 50° 74° (ENE) 21:26:54 145.980
SEEDS 30 Jan 21:19:36 21:20:41 11° 271° (W) 21:21:28 437.485
ISS 30 Jan 21:21:08 21:24:00 27° 327° (NNW) 21:26:52 145.825
CUBEBUG 1 30 Jan 21:22:28 21:25:42 21° 69° (ENE) 21:29:04 437.445
UKube-1 30 Jan 21:31:44 21:35:46 38° 262° (W) 21:39:49 .
POLYITAN 1 30 Jan 21:37:05 21:39:16 14° 91° (E) 21:41:39 437.675
HUMSAT D 30 Jan 21:38:46 21:43:07 74° 259° (WSW) 21:47:29 437.325/437.525
ZACube-1 30 Jan 21:50:01 21:54:08 31° 264° (W) 21:58:11 437.345
CUBEBUG 2 30 Jan 21:50:41 21:54:28 23° 267° (W) 21:58:09 437.445
AIST 1 30 Jan 21:51:19 21:55:41 74° 82° (E) 22:00:03
DELFI C3 30 Jan 21:52:04 21:54:29 15° 268° (W) 21:56:45 145.870
POPSAT HIP 1 30 Jan 21:55:09 21:58:32 23° 94° (E) 22:02:00 437.405
DX 1 30 Jan 21:55:38 21:58:56 20° 266° (W) 22:02:06 434.975-435.025
DUCHIFAT 1 30 Jan 21:56:43 22:00:08 23° 94° (E) 22:03:37 145.980
UNISAT 6 30 Jan 21:59:25 22:03:39 45° 98° (E) 22:07:49 437.425
FUNcube-1 30 Jan 22:01:51 22:05:34 23° 266° (W) 22:09:13 145.935
AISAT 30 Jan 22:28:13 22:31:56 25° 265° (W) 22:35:33 437.250
UWE-3 30 Jan 22:30:28 22:31:09 10° 272° (W) 22:31:29 435.000/436.395/437.385
NANOSAT C BR1 30 Jan 22:31:05 22:35:22 62° 101° (E) 22:39:35 145.865
50 SAT 30 Jan 22:35:22 22:38:32 20° 266° (W) 22:41:36 437.505
ANTELSAT 30 Jan 22:35:28 22:39:52 66° 285° (WNW) 22:44:08 437.575/2403.000
ESTCUBE 1 30 Jan 22:36:00 22:40:21 49° 261° (W) 22:44:43 437.505/2401.250
SPROUT 30 Jan 22:36:04 22:39:54 33° 72° (ENE) 22:43:48 437.525
TIGRISAT 30 Jan 22:42:11 22:46:32 56° 285° (WNW) 22:50:44 435.000
QB50P2 30 Jan 22:46:26 22:50:47 83° 283° (WNW) 22:55:03 145.880/145.840
QB50P1 30 Jan 22:55:10 22:59:27 66° 285° (WNW) 23:03:41 145.935-145.965
BUGSAT 1 30 Jan 22:57:19 23:01:38 83° 283° (WNW) 23:05:54 437.445
VELOX 1 30 Jan 22:57:32 22:59:32 12° 270° (W) 23:01:18 145.980
CUBEBUG 1 30 Jan 22:58:08 23:01:57 29° 264° (W) 23:05:44 437.445
BEESAT 30 Jan 23:04:23 23:04:51 10° 64° (ENE) 23:05:38 436.000
TISAT 1 30 Jan 23:06:27 23:10:41 76° 76° (ENE) 23:14:58 437.305
ITUPSAT 1 30 Jan 23:08:29 23:09:52 11° 65° (ENE) 23:11:31 437.325
POLYITAN 1 30 Jan 23:11:23 23:15:29 42° 287° (WNW) 23:19:30 437.675
POPSAT HIP 1 30 Jan 23:30:49 23:34:26 26° 289° (WNW) 23:37:58 437.405
DUCHIFAT 1 30 Jan 23:32:23 23:35:58 25° 289° (WNW) 23:39:26 145.980
UNISAT 6 30 Jan 23:37:40 23:40:06 14° 293° (WNW) 23:42:19 437.425
BEESAT 2 31 Jan 00:07:19 00:09:07 13° 109° (ESE) 00:11:09 435.950
NANOSAT C BR1 31 Jan 00:09:53 00:10:46 10° 294° (WNW) 00:11:24 145.865
GONETS M04 31 Jan 00:12:19 00:20:35 51° 91° (E) 00:28:57
SPROUT 31 Jan 00:13:03 00:16:07 18° 267° (W) 00:19:03 437.525
BEESAT 3 31 Jan 00:18:12 00:21:11 20° 112° (ESE) 00:24:19 437.485
Oscar 19 31 Jan 00:19:37 00:23:35 23° 94° (E) 00:27:40 437.125/150
SWISSCUBE 31 Jan 00:21:59 00:26:43 79° 77° (ENE) 00:31:30 437.505
O/OREOS (USA 219) 31 Jan 00:29:05 00:32:27 20° 59° (ENE) 00:35:55 437.305
KKS-1 31 Jan 00:29:36 00:32:10 16° 67° (ENE) 00:34:55 437.445
BEESAT 31 Jan 00:37:24 00:42:09 77° 259° (WSW) 00:46:56 436.000
ITAMSAT 1 31 Jan 00:41:46 00:43:28 12° 89° (E) 00:45:31 435.822/435.867
ITUPSAT 1 31 Jan 00:42:32 00:47:16 70° 259° (W) 00:52:02 437.325
BEESAT 2 31 Jan 01:42:59 01:46:58 47° 303° (WNW) 01:51:01 435.950
Gurwin Techsat 1B 31 Jan 01:47:29 01:52:26 39° 97° (E) 01:57:25 435.225
AIST 2 31 Jan 01:48:41 01:52:54 77° 118° (ESE) 01:57:11 435.215
M-CUBED/EXP-1 PRIME 31 Jan 01:52:03 01:55:59 52° 71° (ENE) 01:59:38 437.505
STARS 31 Jan 01:53:11 01:57:38 88° 77° (ENE) 02:02:07 437.465
BEESAT 3 31 Jan 01:55:30 01:59:10 30° 307° (NW) 02:02:52 437.485
Oscar 19 31 Jan 01:58:22 02:03:03 36° 289° (WNW) 02:07:41 437.125/150
DANDE 31 Jan 02:00:57 02:05:26 17° 82° (E) 02:10:36 436.750
KKS-1 31 Jan 02:04:13 02:08:30 44° 261° (W) 02:12:48 437.445
O/OREOS (USA 219) 31 Jan 02:07:48 02:12:00 35° 255° (WSW) 02:16:09 437.305
GONETS M04 31 Jan 02:10:07 02:17:48 32° 289° (WNW) 02:25:14
HORYU 2 31 Jan 02:13:07 02:16:11 19° 93° (E) 02:19:23 437.375
ISS 31 Jan 02:15:01 02:17:02 15° 26° (NNE) 02:19:07 145.825
RS-15 31 Jan 02:15:03 02:21:44 20° 103° (ESE) 02:29:08 29.354- 29.394
CUSAT 1 31 Jan 02:17:26 02:23:47 27° 87° (E) 02:30:35 437.405
ITAMSAT 1 31 Jan 02:18:21 02:23:34 70° 286° (WNW) 02:28:46 435.822/435.867
AUBIESAT-1 31 Jan 02:23:31 02:27:32 67° 254° (WSW) 02:31:13 437.475
PCSat 31 Jan 02:45:12 02:50:10 39° 111° (ESE) 02:55:13 145.827
AO-7 31 Jan 03:14:56 03:22:39 42° 99° (E) 03:30:24 29.400- 29.500
Gurwin Techsat 1B 31 Jan 03:28:02 03:32:13 23° 292° (WNW) 03:36:15 435.225
AIST 2 31 Jan 03:30:31 03:32:07 12° 317° (NW) 03:33:34 435.215
DANDE 31 Jan 03:39:42 03:47:54 85° 97° (E) 03:56:37 436.750
HORYU 2 31 Jan 03:48:58 03:52:59 33° 288° (WNW) 03:56:56 437.375
ISS 31 Jan 03:50:34 03:53:52 71° 224° (SW) 03:57:08 145.825
MOZHAYETS 4 31 Jan 03:57:24 04:02:00 75° 259° (W) 04:06:36
CUSAT 1 31 Jan 03:58:10 04:06:20 65° 282° (WNW) 04:14:40 437.405
JAS-2 31 Jan 04:15:08 04:20:57 64° 101° (ESE) 04:27:33 435.910
CUBESAT XI-V 31 Jan 04:21:24 04:23:26 13° 67° (ENE) 04:25:41 437.345
RS-15 31 Jan 04:21:56 04:32:55 87° 300° (WNW) 04:43:58 29.354- 29.394
YUBILEINY 31 Jan 04:25:01 04:29:18 15° 61° (ENE) 04:34:15 435.215
PCSat 31 Jan 04:29:10 04:33:44 26° 307° (NW) 04:38:15 145.827
Cubesat XI-IV 31 Jan 04:40:03 04:41:53 12° 89° (E) 04:44:06 437.490
CUTE-I 31 Jan 04:57:55 05:01:34 19° 92° (E) 05:05:24 437.470
PRISM 31 Jan 05:05:45 05:09:46 59° 75° (ENE) 05:13:50 437.425
AO-7 31 Jan 05:07:47 05:15:25 41° 296° (WNW) 05:22:55 29.400- 29.500
STRAND 1 31 Jan 05:15:45 05:20:26 39° 71° (ENE) 05:25:11 437.568
DANDE 31 Jan 05:26:14 05:32:29 21° 296° (WNW) 05:38:27 436.750
CUSAT 1 31 Jan 05:47:26 05:51:05 13° 301° (WNW) 05:54:05 437.405
CUBESAT XI-V 31 Jan 05:55:58 06:00:29 55° 261° (W) 06:05:01 437.345
JAS-2 31 Jan 06:01:53 06:05:46 18° 293° (WNW) 06:09:39 435.910
PHONESAT 2.4 31 Jan 06:16:53 06:19:01 15° 144° (SE) 06:21:13 2401.200-2431.200
Cubesat XI-IV 31 Jan 06:17:15 06:22:37 72° 286° (WNW) 06:27:59 437.490
YUBILEINY 31 Jan 06:18:54 06:27:45 84° 83° (E) 06:36:35 435.215
CUTE-I 31 Jan 06:36:47 06:41:56 47° 288° (WNW) 06:47:03 437.470
RS-15 31 Jan 06:38:21 06:47:10 26° 325° (NW) 06:55:48 29.354- 29.394
VERMONT LUNAR 31 Jan 06:41:48 06:45:04 41° 152° (SSE) 06:48:22 437.305
STRAND 1 31 Jan 06:55:55 06:59:49 21° 267° (W) 07:03:34 437.568
SEEDS 31 Jan 07:30:21 07:31:11 11° 89° (E) 07:32:18 437.485
GOMX 1 31 Jan 07:38:44 07:42:42 22° 91° (E) 07:46:40 467.674
DOVE 4 31 Jan 07:41:19 07:44:05 15° 88° (E) 07:47:03 437.250
COMPASS 1 31 Jan 07:52:05 07:54:43 17° 92° (E) 07:57:30 437.405
PHONESAT 2.4 31 Jan 07:53:38 07:57:13 77° 159° (SSE) 08:00:50 2401.200-2431.200
BRITE-PL 31 Jan 07:53:49 07:59:13 46° 97° (E) 08:04:20 437.365/2234.400
CANX-2 31 Jan 08:12:02 08:16:08 48° 99° (E) 08:20:13 2200.000
AAUSAT CUBESAT 2 31 Jan 08:15:54 08:19:27 28° 96° (E) 08:23:04 437.432
YUBILEINY 31 Jan 08:18:15 08:23:38 17° 279° (W) 08:28:26 435.215
VERMONT LUNAR 31 Jan 08:19:44 08:23:09 52° 347° (NNW) 08:26:35 437.305
HO-68 31 Jan 08:28:09 08:35:17 68° 103° (ESE) 08:42:26 435.675
CUTE 1.7 + AOD 2 31 Jan 08:35:45 08:40:00 87° 107° (ESE) 08:44:12 437.475
UWE-3 31 Jan 08:43:56 08:46:39 16° 91° (E) 08:49:29 435.000/436.395/437.385
Oscar 11 31 Jan 08:45:32 08:49:18 30° 96° (E) 08:53:06 145.826/435.025
POPSAT HIP 1 31 Jan 08:47:05 08:49:05 13° 67° (ENE) 08:51:17 437.405
CINEMA 3 31 Jan 08:47:23 08:51:52 41° 97° (E) 08:56:10 145.822/145.860
DUCHIFAT 1 31 Jan 08:48:19 08:50:21 14° 67° (ENE) 08:52:35 145.980
UNISAT 6 31 Jan 08:55:47 08:59:56 32° 72° (ENE) 09:04:07 437.425
RS-15 31 Jan 09:00:38 09:05:17 13° 0° (N) 09:10:02 29.354- 29.394
SEEDS 31 Jan 09:03:20 09:07:24 51° 285° (WNW) 09:11:27 437.485
VELOX 1 31 Jan 09:13:52 09:15:30 12° 90° (E) 09:17:24 145.980
GOMX 1 31 Jan 09:16:01 09:21:02 40° 288° (WNW) 09:25:45 467.674
DOVE 4 31 Jan 09:17:19 09:22:20 52° 286° (WNW) 09:27:01 437.250
NANOSAT C BR1 31 Jan 09:21:30 09:25:18 33° 72° (ENE) 09:29:10 145.865
UKube-1 31 Jan 09:21:56 09:26:05 41° 99° (E) 09:30:13 .
SO-50 31 Jan 09:25:30 09:30:01 73° 300° (WNW) 09:34:44 436.795
COMPASS 1 31 Jan 09:26:49 09:30:34 32° 287° (WNW) 09:34:15 437.405
HUMSAT D 31 Jan 09:26:55 09:30:07 21° 94° (E) 09:33:23 437.325/437.525
ANTELSAT 31 Jan 09:31:19 09:36:02 79° 77° (ENE) 09:40:44 437.575/2403.000
PHONESAT 2.4 31 Jan 09:32:29 09:35:57 42° 353° (N) 09:39:26 2401.200-2431.200
DELFI C3 31 Jan 09:32:59 09:37:03 87° 284° (WNW) 09:41:05 145.870
BRITE-PL 31 Jan 09:33:06 09:37:22 22° 293° (WNW) 09:41:20 437.365/2234.400
QB50P2 31 Jan 09:36:48 09:40:57 51° 74° (ENE) 09:45:09 145.880/145.840
TIGRISAT 31 Jan 09:37:39 09:42:23 90° 56° (NE) 09:47:07 435.000
ZACube-1 31 Jan 09:41:18 09:45:40 64° 100° (E) 09:49:53 437.345
CUBEBUG 2 31 Jan 09:43:54 09:48:27 80° 283° (WNW) 09:52:47 437.445
BUGSAT 1 31 Jan 09:45:00 09:48:55 46° 74° (ENE) 09:52:55 437.445
QB50P1 31 Jan 09:45:13 09:49:26 64° 76° (ENE) 09:53:42 145.935-145.965
DX 1 31 Jan 09:45:21 09:49:47 84° 101° (E) 09:54:11 434.975-435.025
CANX-2 31 Jan 09:49:48 09:51:43 13° 293° (WNW) 09:53:25 2200.000
AAUSAT CUBESAT 2 31 Jan 09:51:55 09:54:59 20° 290° (WNW) 09:57:56 437.432
FUNcube-1 31 Jan 09:52:26 09:56:50 86° 101° (ESE) 10:01:06 145.935
VERMONT LUNAR 31 Jan 09:58:18 10:01:36 39° 4° (N) 10:04:55 437.305
POLYITAN 1 31 Jan 10:01:31 10:05:49 80° 258° (WSW) 10:10:10 437.675
BEESAT 2 31 Jan 10:05:16 10:09:16 44° 56° (NE) 10:13:14 435.950
AIST 2 31 Jan 10:13:40 10:17:07 24° 51° (NE) 10:20:35 435.215
50 SAT 31 Jan 10:16:24 10:20:25 64° 101° (E) 10:24:22 437.505
BEESAT 3 31 Jan 10:16:52 10:21:01 70° 59° (ENE) 10:25:05 437.485
HO-68 31 Jan 10:17:13 10:22:28 22° 298° (WNW) 10:27:27 435.675
AIST 1 31 Jan 10:18:11 10:22:16 48° 94° (E) 10:26:24
UWE-3 31 Jan 10:19:18 10:23:25 37° 288° (WNW) 10:27:23 435.000/436.395/437.385
POPSAT HIP 1 31 Jan 10:20:29 10:24:37 47° 261° (W) 10:28:48 437.405
AISAT 31 Jan 10:20:58 10:25:31 77° 103° (ESE) 10:30:00 437.250
DUCHIFAT 1 31 Jan 10:21:45 10:25:51 46° 261° (W) 10:30:00 145.980
Oscar 11 31 Jan 10:22:07 10:25:20 20° 290° (WNW) 10:28:27 145.826/435.025
CINEMA 3 31 Jan 10:25:30 10:28:45 18° 293° (WNW) 10:31:46 145.822/145.860
GONETS M04 31 Jan 10:26:52 10:32:50 21° 66° (ENE) 10:39:13
ESTCUBE 1 31 Jan 10:31:27 10:35:44 41° 98° (E) 10:40:02 437.505/2401.250
UNISAT 6 31 Jan 10:33:01 10:36:46 23° 266° (W) 10:40:24 437.425
VELOX 1 31 Jan 10:48:05 10:52:29 53° 286° (WNW) 10:56:50 145.980
CUBEBUG 1 31 Jan 10:49:07 10:53:33 62° 101° (E) 10:57:58 437.445
TISAT 1 31 Jan 10:55:34 10:57:56 15° 92° (E) 11:00:30 437.305
NANOSAT C BR1 31 Jan 10:58:18 11:01:18 18° 267° (W) 11:04:10 145.865
UKube-1 31 Jan 10:59:16 11:01:57 16° 293° (WNW) 11:04:28 .
HUMSAT D 31 Jan 11:02:23 11:05:56 26° 289° (WNW) 11:09:21 437.325/437.525
PHONESAT 2.4 31 Jan 11:11:21 11:14:53 48° 11° (N) 11:18:26 2401.200-2431.200
RS-15 31 Jan 11:14:36 11:23:28 26° 35° (NE) 11:32:58 29.354- 29.394
QB50P2 31 Jan 11:15:43 11:17:16 11° 270° (W) 11:18:33 145.880/145.840
ZACube-1 31 Jan 11:20:47 11:21:31 10° 295° (WNW) 11:22:00 437.345
BUGSAT 1 31 Jan 11:23:11 11:24:46 12° 270° (W) 11:26:07 437.445
Oscar 19 31 Jan 11:33:54 11:38:08 27° 69° (ENE) 11:42:29 437.125/150
PCSat 31 Jan 11:36:14 11:40:07 20° 49° (NE) 11:44:07 145.827
VERMONT LUNAR 31 Jan 11:36:25 11:39:56 87° 20° (NNE) 11:43:27 437.305
BEESAT 2 31 Jan 11:44:54 11:47:09 14° 250° (WSW) 11:49:11 435.950
AIST 2 31 Jan 11:52:02 11:55:46 29° 247° (WSW) 11:59:23 435.215
ITAMSAT 1 31 Jan 11:57:01 11:59:48 15° 65° (ENE) 12:02:49 435.822/435.867
AIST 1 31 Jan 11:58:53 12:00:21 11° 290° (WNW) 12:01:33
SPROUT 31 Jan 12:00:58 12:05:21 85° 281° (WNW) 12:09:41 437.525
ESTCUBE 1 31 Jan 12:09:22 12:12:20 17° 292° (WNW) 12:15:08 437.505/2401.250
GONETS M04 31 Jan 12:22:02 12:30:42 74° 266° (W) 12:39:20
SWISSCUBE 31 Jan 12:25:43 12:29:37 25° 95° (E) 12:33:35 437.505
CUBEBUG 1 31 Jan 12:27:57 12:29:28 11° 294° (WNW) 12:30:44 437.445
TISAT 1 31 Jan 12:29:58 12:34:00 39° 287° (WNW) 12:37:58 437.305
BEESAT 31 Jan 12:40:44 12:45:02 33° 97° (E) 12:49:21 436.000
ITUPSAT 1 31 Jan 12:46:06 12:50:31 37° 98° (E) 12:54:59 437.325
PHONESAT 2.4 31 Jan 12:49:57 12:53:31 53° 206° (SSW) 12:57:04 2401.200-2431.200
Gurwin Techsat 1B 31 Jan 13:05:54 13:10:58 48° 73° (ENE) 13:16:05 435.225
HORYU 2 31 Jan 13:10:13 13:12:24 14° 67° (ENE) 13:14:48 437.375
Oscar 19 31 Jan 13:12:43 13:17:23 33° 264° (W) 13:22:01 437.125/150
VERMONT LUNAR 31 Jan 13:15:10 13:17:46 19° 214° (SW) 13:20:19 437.305
PCSat 31 Jan 13:18:38 13:23:57 56° 248° (WSW) 13:29:13 145.827
RS-15 31 Jan 13:26:21 13:37:51 85° 60° (ENE) 13:49:52 29.354- 29.394
ITAMSAT 1 31 Jan 13:33:45 13:38:51 60° 259° (WSW) 13:44:00 435.822/435.867
STARS 31 Jan 13:46:50 13:50:03 20° 94° (E) 13:53:22 437.465
KKS-1 31 Jan 13:58:04 14:02:20 42° 99° (E) 14:06:36 437.445
SWISSCUBE 31 Jan 14:03:20 14:07:30 29° 289° (WNW) 14:11:35 437.505
AO-7 31 Jan 14:10:52 14:18:38 46° 66° (ENE) 14:26:30 29.400- 29.500
BEESAT 31 Jan 14:18:59 14:22:43 23° 291° (WNW) 14:26:21 436.000
GONETS M04 31 Jan 14:24:00 14:26:17 11° 282° (WNW) 14:27:43
ITUPSAT 1 31 Jan 14:24:38 14:28:12 21° 292° (WNW) 14:31:39 437.325
JAS-2 31 Jan 14:27:44 14:30:59 17° 67° (ENE) 14:34:22 435.910
DANDE 31 Jan 14:29:35 14:35:39 57° 76° (ENE) 14:40:05 436.750
O/OREOS (USA 219) 31 Jan 14:38:09 14:42:11 35° 105° (ESE) 14:46:19 437.305
HORYU 2 31 Jan 14:44:19 14:48:42 50° 260° (W) 14:53:05 437.375
CUSAT 1 31 Jan 14:45:16 14:50:57 81° 263° (W) 14:55:04 437.405
Gurwin Techsat 1B 31 Jan 14:47:35 14:51:16 18° 268° (W) 14:54:45 435.225
M-CUBED/EXP-1 PRIME 31 Jan 15:11:09 15:14:30 64° 107° (ESE) 15:17:59 437.505
STARS 31 Jan 15:22:40 15:26:38 31° 288° (WNW) 15:30:30 437.465
KKS-1 31 Jan 15:35:52 15:38:41 16° 293° (WNW) 15:41:19 437.445
RS-15 31 Jan 15:40:49 15:49:18 23° 256° (WSW) 15:57:16 29.354- 29.394
AUBIESAT-1 31 Jan 15:42:15 15:45:31 49° 289° (WNW) 15:48:55 437.475
MOZHAYETS 4 31 Jan 15:55:40 15:59:42 31° 96° (E) 16:03:47
Cubesat XI-IV 31 Jan 15:59:07 16:02:20 17° 65° (ENE) 16:05:46 437.490
AO-7 31 Jan 16:03:55 16:11:33 37° 262° (W) 16:19:04 29.400- 29.500
JAS-2 31 Jan 16:10:30 16:15:52 50° 260° (W) 16:20:55 435.910
JUGNU 31 Jan 16:14:54 16:17:57 14° 173° (S) 16:21:03 437.505
DANDE 31 Jan 16:15:21 16:18:00 13° 280° (W) 16:20:05 436.750
CUTE-I 31 Jan 16:17:14 16:21:24 25° 68° (ENE) 16:25:43 437.470
O/OREOS (USA 219) 31 Jan 16:18:26 16:21:45 19° 301° (WNW) 16:24:59 437.305
PRISM 31 Jan 16:54:22 16:54:43 10° 90° (E) 16:55:22 437.425
SRMSAT 31 Jan 17:00:58 17:03:16 12° 169° (S) 17:05:39 437.500
YUBILEINY 31 Jan 17:23:38 17:28:47 18° 82° (E) 17:34:28 435.215
STRAND 1 31 Jan 17:30:04 17:33:09 16° 91° (E) 17:36:28 437.568
MOZHAYETS 4 31 Jan 17:33:15 17:36:47 22° 290° (WNW) 17:40:13
Cubesat XI-IV 31 Jan 17:36:48 17:42:01 56° 259° (W) 17:47:17 437.490
CUBESAT XI-V 31 Jan 17:55:23 17:59:53 44° 98° (E) 18:04:24 437.345
CUTE-I 31 Jan 17:56:24 18:01:19 37° 263° (W) 18:06:13 437.470
SO-50 31 Jan 17:59:29 18:04:16 49° 56° (NE) 18:09:02 436.795
JUGNU 31 Jan 18:02:51 18:06:13 15° 183° (S) 18:09:35 437.505
PRISM 31 Jan 18:26:34 18:30:38 53° 286° (WNW) 18:34:41 437.425
GOMX 1 31 Jan 18:44:21 18:47:47 19° 66° (ENE) 18:51:32 467.674
DOVE 4 31 Jan 18:44:56 18:47:12 13° 65° (ENE) 18:49:46 437.250
SRMSAT 31 Jan 18:48:08 18:51:41 16° 179° (S) 18:55:15 437.500
ISS 31 Jan 18:53:58 18:55:25 13° 128° (SE) 18:57:00 145.825
HO-68 31 Jan 18:54:01 19:00:27 39° 67° (ENE) 19:06:59 435.675
BRITE-PL 31 Jan 19:01:35 19:06:16 38° 71° (ENE) 19:11:19 437.365/2234.400
CANX-2 31 Jan 19:02:58 19:06:28 26° 71° (ENE) 19:10:03 2200.000
AAUSAT CUBESAT 2 31 Jan 19:05:47 19:08:06 15° 69° (ENE) 19:10:35 437.432
STRAND 1 31 Jan 19:07:43 19:12:42 51° 287° (WNW) 19:17:40 437.568
